User: anonymous   Login
Location: Rehoboth Beach
(38.7438°N, 75.1341°W)
Time: 18:17:02
(UTC-04:00)
Language:

Cosmos 1452 Rocket - Orbit

View from above orbital plane
View from above orbital plane
View from above satellite
View from above satellite

Ground track
Ground track

The orbit data is extracted from the following two-line orbital elements,

1 13992U 83031B   16274.86739394  .00000141  00000-0  57521-4 0  9998
2 13992  74.0518 122.7506 0005000 179.9501 278.8249 14.36055317751582
Epoch (UTC): 30 September 2016 20:49:02
Eccentricity: 0.0005000
inclination: 74.0518°
perigee height: 768 km
apogee height: 775 km
right ascension of ascending node: 122.7506°
argument of perigee: 179.9501°
revolutions per day: 14.36055317
mean anomaly at epoch: 278.8249°
orbit number at epoch: 75158

The dashed part of the orbit path shows where the satellite is in the earth's shadow,  

DLR